QPF
0.00 0.00 0.00 0.00 0.00 0.00 0.00 0.00 0.00 0.00 0.00 0.00 0.00 0.00 0.00 0.00 0.00 0.00 0.00 0.00 0.00 0.00 0.00 0.00 0.00 0.00 0.00 0.00 0.00 0.00 0.00 0.00 0.00 0.00 0.00 0.00 0.00 0.00 0.00 0.00 0.00 0.00 0.00 0.00 0.00
0.00 0.00 0.00 0.00 0.00 0.00 0.00 0.00 0.00 0.00 0.00 0.00 0.00 0.00 0.00 0.00 0.00 0.00 0.00 0.00 0.00 0.00 0.00 0.00 0.00 0.00 0.00 0.00 0.00 0.00 0.00 0.00 0.00 0.00 0.00 0.00 0.00 0.00 0.00 0.00 0.00 0.00 0.00 0.00 0.00
0.00 0.00 0.00 0.00 0.00 0.00 0.00 0.00 0.00 0.00 0.00 0.00 0.00 0.00 0.00 0.00 0.00 0.00 0.00 0.00 0.00 0.00 0.00 0.00 0.00 0.00 0.00 0.00 0.00 0.00 0.00 0.00 0.00 0.00 0.00 0.00 0.00 0.00 0.00 0.00 0.00 0.00 0.00 0.00 0.00
0.00 0.00 0.00 0.00 0.00 0.00 0.00 0.00 0.00 0.00 0.00 0.00 0.00 0.00 0.00 0.00 0.00 0.00 0.00 0.00 0.00 0.00 0.00 0.00 0.00 0.00 0.00 0.00 0.00 0.00 0.00 0.00 0.00 0.00 0.00 0.00 0.00 0.00 0.00 0.00 0.00 0.00 0.00 0.00 0.00
0.00 0.00 0.00 0.00 0.00 0.00 0.00 0.00 0.00 0.00 0.00 0.00 0.00 0.00 0.00 0.00 0.00 0.00 0.00 0.00 0.00 0.00 0.00 0.00 0.00 0.00 0.00 0.00 0.00 0.00 0.00 0.00 0.00 0.00 0.00 0.00 0.00 0.00 0.00 0.00 0.00 0.00 0.00 0.00 0.00
0.00 0.00 0.00 0.00 0.00 0.00 0.00 0.00 0.00 0.00 0.00 0.00 0.00 0.00 0.00 0.00 0.00 0.00 0.00 0.00 0.00 0.00 0.00 0.00 0.00 0.00 0.00 0.00 0.00 0.00 0.00 0.00 0.00 0.00 0.00 0.00 0.00 0.00 0.00 0.00 0.00 0.00 0.00 0.00 0.00
0.00 0.00 0.00 0.00 0.00 0.00 0.00 0.00 0.00 0.00 0.00 0.00 0.00 0.00 0.00 0.00 0.00 0.00 0.00 0.00 0.00 0.00 0.00 0.00 0.00 0.00 0.00 0.00 0.00 0.00 0.00 0.00 0.00 0.00 0.00 0.00 0.00 0.00 0.00 0.00 0.00 0.00 0.00 0.00 0.00
0.00 0.00 0.00 0.00 0.00 0.00 0.00 0.00 0.00 0.00 0.00 0.00 0.00 0.00 0.00 0.00 0.00 0.00 0.00 0.00 0.00 0.00 0.00 0.00 0.00 0.00 0.00 0.00 0.00 0.00 0.00 0.00 0.00 0.00 0.00 0.00 0.00 0.00 0.00 0.00 0.00 0.00 0.00 0.00 0.00
0.00 0.00 0.00 0.00 0.00 0.00 0.00 0.00 0.00 0.00 0.00 0.00 0.00 0.00 0.00 0.00 0.00 0.00 0.00 0.00 0.00 0.00 0.00 0.00 0.00 0.00 0.00 0.00 0.00 0.00 0.00 0.00 0.00 0.00 0.00 0.00 0.00 0.00 0.00 0.00 0.00 0.00 0.00 0.00 0.00
0.01 0.00 0.00 0.00 0.00 0.00 0.00 0.00 0.00 0.00 0.00 0.00 0.00 0.00 0.00 0.00 0.00 0.00 0.00 0.00 0.00 0.00 0.00 0.00 0.00 0.00 0.00 0.00 0.00 0.00 0.00 0.00 0.00 0.00 0.00 0.00 0.00 0.00 0.00 0.00 0.00 0.00 0.00 0.00 0.00
0.00 0.00 0.00 0.00 0.00 0.00 0.00 0.00 0.00 0.00 0.00 0.00 0.00 0.00 0.00 0.00 0.00 0.00 0.00 0.00 0.00 0.00 0.00 0.00 0.00 0.00 0.00 0.00 0.00 0.00 0.00 0.00 0.00 0.00 0.00 0.00 0.00 0.00 0.00 0.00 0.00 0.00 0.00 0.00 0.00
0.00 0.00 0.00 0.00 0.00 0.00 0.00 0.00 0.00 0.00 0.00 0.00 0.00 0.00 0.00 0.00 0.00 0.00 0.00 0.00 0.00 0.00 0.00 0.00 0.00 0.00 0.00 0.00 0.00 0.00 0.00 0.00 0.00 0.00 0.00 0.00 0.00 0.00 0.00 0.00 0.00 0.00 0.00 0.00 0.00
0.00 0.00 0.00 0.00 0.00 0.00 0.00 0.00 0.00 0.00 0.00 0.00 0.00 0.00 0.00 0.00 0.00 0.00 0.00 0.00 0.00 0.00 0.00 0.00 0.00 0.00 0.00 0.00 0.00 0.00 0.00 0.00 0.00 0.00 0.00 0.00 0.00 0.00 0.00 0.00 0.00 0.00 0.00 0.00 0.00
0.00 0.00 0.00 0.00 0.00 0.00 0.00 0.00 0.00 0.00 0.00 0.00 0.00 0.00 0.00 0.00 0.00 0.00 0.00 0.00 0.00 0.00 0.00 0.00 0.00 0.00 0.00 0.00 0.00 0.00 0.00 0.00 0.00 0.00 0.00 0.00 0.00 0.00 0.00 0.00 0.00 0.00 0.00 0.00 0.00
0.00 0.00 0.00 0.01 0.00 0.00 0.00 0.00 0.00 0.01 0.00 0.00 0.00 0.00 0.00 0.00 0.00 0.00 0.00 0.00 0.00 0.00 0.00 0.00 0.00 0.00 0.00 0.00 0.00 0.00 0.00 0.00 0.00 0.00 0.00 0.00 0.00 0.00 0.00 0.00 0.00 0.00 0.00 0.00 0.00
0.00 0.00 0.01 0.00 0.00 0.00 0.00 0.00 0.00 0.03 0.01 0.00 0.00 0.00 0.00 0.00 0.00 0.00 0.00 0.00 0.00 0.00 0.00 0.00 0.00 0.00 0.00 0.00 0.00 0.00 0.00 0.00 0.00 0.00 0.00 0.00 0.00 0.00 0.00 0.00 0.00 0.00 0.00 0.00 0.00
0.00 0.00 0.01 0.00 0.00 0.00 0.00 0.00 0.01 0.01 0.00 0.00 0.00 0.00 0.00 0.00 0.00 0.00 0.00 0.00 0.00 0.00 0.00 0.00 0.00 0.00 0.00 0.00 0.00 0.00 0.00 0.00 0.00 0.00 0.00 0.00 0.00 0.00 0.00 0.00 0.00 0.00 0.00 0.00 0.00
0.00 0.00 0.00 0.00 0.00 0.00 0.00 0.00 0.00 0.00 0.00 0.00 0.00 0.00 0.00 0.00 0.00 0.00 0.00 0.00 0.00 0.00 0.00 0.00 0.00 0.00 0.00 0.00 0.00 0.00 0.00 0.00 0.00 0.00 0.00 0.00 0.00 0.00 0.00 0.00 0.00 0.00 0.00 0.00 0.00
0.00 0.00 0.00 0.00 0.00 0.00 0.01 0.00 0.00 0.00 0.00 0.00 0.00 0.01 0.00 0.00 0.00 0.00 0.00 0.00 0.00 0.00 0.00 0.00 0.00 0.00 0.00 0.00 0.00 0.00 0.00 0.00 0.00 0.00 0.00 0.00 0.00 0.00 0.00 0.00 0.00 0.00 0.00 0.00 0.00
0.00 0.00 0.00 0.00 0.00 0.02 0.02 0.00 0.00 0.00 0.00 0.00 0.00 0.00 0.00 0.00 0.00 0.00 0.00 0.00 0.00 0.00 0.00 0.00 0.00 0.00 0.00 0.00 0.00 0.00 0.00 0.00 0.00 0.00 0.00 0.00 0.00 0.00 0.00 0.00 0.00 0.00 0.00 0.00 0.00
0.00 0.00 0.00 0.00 0.02 0.03 0.04 0.01 0.00 0.00 0.00 0.00 0.00 0.00 0.00 0.00 0.00 0.00 0.01 0.01 0.00 0.00 0.00 0.00 0.00 0.00 0.00 0.00 0.00 0.00 0.00 0.00 0.00 0.00 0.00 0.00 0.00 0.00 0.00 0.00 0.00 0.00 0.00 0.00 0.00
0.00 0.00 0.00 0.08 0.12 0.06 0.01 0.00 0.00 0.00 0.00 0.00 0.00 0.00 0.00 0.01 0.00 0.00 0.00 0.02 0.00 0.00 0.00 0.00 0.00 0.00 0.00 0.00 0.00 0.00 0.00 0.00 0.00 0.00 0.00 0.00 0.00 0.00 0.00 0.00 0.00 0.00 0.00 0.00 0.00
0.00 0.00 0.01 0.05 0.13 0.14 0.04 0.00 0.00 0.00 0.00 0.01 0.00 0.00 0.00 0.01 0.00 0.01 0.01 0.03 0.01 0.00 0.00 0.00 0.00 0.00 0.00 0.00 0.00 0.00 0.00 0.00 0.00 0.00 0.00 0.00 0.00 0.00 0.00 0.00 0.00 0.00 0.00 0.00 0.00
0.00 0.00 0.00 0.00 0.00 0.01 0.01 0.00 0.00 0.00 0.00 0.00 0.00 0.00 0.00 0.00 0.00 0.01 0.00 0.00 0.00 0.00 0.00 0.00 0.00 0.00 0.00 0.00 0.00 0.00 0.00 0.00 0.00 0.00 0.00 0.00 0.00 0.00 0.00 0.00 0.00 0.00 0.00 0.00 0.00
0.00 0.00 0.01 0.00 0.00 0.00 0.00 0.00 0.00 0.00 0.00 0.00 0.00 0.00 0.00 0.00 0.01 0.01 0.01 0.00 0.00 0.00 0.00 0.00 0.00 0.00 0.00 0.00 0.00 0.00 0.00 0.00 0.00 0.00 0.00 0.00 0.00 0.00 0.00 0.00 0.00 0.00 0.00 0.00 0.00
0.00 0.00 0.00 0.00 0.00 0.00 0.00 0.00 0.00 0.00 0.01 0.00 0.00 0.00 0.00 0.00 0.01 0.01 0.01 0.01 0.01 0.00 0.01 0.00 0.00 0.00 0.00 0.00 0.00 0.00 0.00 0.00 0.00 0.00 0.00 0.00 0.00 0.00 0.00 0.00 0.00 0.00 0.00 0.00 0.00
0.00 0.00 0.01 0.00 0.00 0.00 0.00 0.00 0.00 0.00 0.00 0.00 0.00 0.00 0.00 0.00 0.01 0.01 0.00 0.00 0.00 0.00 0.00 0.00 0.00 0.00 0.00 0.00 0.00 0.00 0.00 0.00 0.00 0.00 0.00 0.00 0.00 0.00 0.00 0.00 0.00 0.00 0.00 0.00 0.00
MSLP
1019.59 1019.22 1018.90 1018.53 1018.05 1017.54 1017.42 1017.37 1017.07 1016.70 1016.36 1016.00 1015.77 1015.55 1014.91 1014.60 1014.16 1013.07 1012.24 1009.96 1009.51 1008.80 1009.59 1009.81 1010.01 1010.92 1011.40 1011.40 1011.56 1012.38 1013.13 1012.67 1011.27 1010.95 1009.28 1008.16 1007.89 1007.43 1007.06 1007.05 1006.82 1006.59 1006.43 1006.13 1006.42
1019.15 1018.92 1018.65 1018.29 1017.89 1017.85 1017.81 1017.41 1016.97 1016.59 1016.42 1016.01 1015.68 1015.49 1015.11 1014.66 1013.93 1012.45 1009.11 1009.16 1009.01 1008.93 1009.43 1009.37 1009.80 1010.73 1011.85 1011.51 1011.65 1012.03 1012.54 1011.28 1009.35 1008.92 1008.79 1008.20 1008.18 1007.70 1007.43 1006.75 1006.31 1006.45 1005.93 1006.07 1006.64
1019.30 1019.01 1018.67 1018.22 1017.90 1017.79 1017.40 1016.95 1016.79 1016.47 1016.07 1016.01 1015.85 1015.66 1015.26 1014.64 1013.49 1009.60 1007.60 1008.09 1008.67 1008.58 1008.61 1008.80 1009.11 1010.59 1011.54 1011.38 1011.27 1010.89 1010.76 1009.96 1008.88 1007.96 1008.36 1008.03 1007.53 1007.80 1007.36 1006.94 1005.98 1006.30 1005.70 1005.95 1006.50
1019.30 1018.98 1018.59 1018.40 1018.11 1017.52 1017.19 1016.92 1016.71 1016.39 1016.06 1015.80 1015.70 1015.48 1015.13 1014.66 1012.20 1008.32 1007.90 1008.29 1008.04 1008.21 1008.31 1008.44 1009.12 1010.75 1010.83 1010.99 1010.43 1010.38 1009.84 1009.43 1008.58 1008.34 1008.40 1008.04 1007.88 1007.16 1007.01 1006.32 1005.83 1005.60 1005.54 1005.69 1006.01
1019.30 1018.90 1018.50 1018.02 1017.61 1017.35 1017.10 1016.85 1016.58 1016.31 1016.17 1015.91 1015.54 1015.20 1014.82 1014.09 1011.10 1007.96 1007.88 1008.45 1008.67 1008.82 1008.19 1007.94 1008.58 1009.52 1010.20 1009.96 1010.18 1009.54 1009.04 1009.00 1008.81 1008.55 1007.69 1007.57 1007.36 1007.20 1006.60 1005.16 1005.28 1005.13 1005.02 1005.11 1005.14
1019.13 1018.71 1018.31 1017.90 1017.49 1017.04 1016.62 1016.27 1016.03 1015.91 1015.80 1015.56 1015.25 1015.11 1015.06 1012.82 1010.04 1008.94 1009.23 1008.94 1008.57 1009.03 1008.81 1008.28 1007.64 1008.10 1008.95 1009.45 1009.65 1008.91 1008.78 1008.63 1008.64 1008.33 1007.45 1007.10 1006.39 1006.93 1005.58 1004.74 1004.91 1004.65 1004.65 1004.43 1004.46
1018.87 1018.46 1018.05 1017.63 1017.13 1016.62 1016.21 1015.79 1015.43 1015.20 1014.99 1014.88 1014.94 1014.79 1013.53 1009.71 1009.49 1009.23 1009.44 1009.46 1008.80 1008.50 1008.44 1008.27 1007.73 1008.05 1008.37 1009.18 1008.89 1008.81 1008.90 1008.64 1008.15 1007.56 1007.14 1006.71 1006.27 1005.82 1004.12 1004.59 1004.53 1004.26 1003.98 1003.73 1003.62
1018.55 1018.16 1017.77 1017.30 1016.84 1016.37 1015.88 1015.29 1014.77 1014.29 1014.09 1014.05 1014.38 1014.59 1011.82 1009.81 1009.40 1009.26 1008.91 1008.27 1008.41 1008.86 1008.46 1007.95 1008.14 1008.23 1008.53 1008.91 1008.73 1008.93 1008.66 1008.38 1007.08 1006.87 1006.50 1006.44 1005.12 1004.59 1004.26 1004.31 1004.15 1003.73 1003.47 1003.35 1003.01
1018.32 1017.89 1017.46 1017.01 1016.53 1016.02 1015.53 1014.86 1014.05 1013.42 1013.23 1013.65 1014.52 1014.26 1011.21 1009.50 1009.01 1007.55 1008.28 1008.00 1007.47 1007.95 1008.15 1008.04 1007.92 1008.20 1008.60 1009.14 1009.48 1008.98 1008.60 1008.01 1007.18 1006.46 1006.35 1006.29 1005.11 1003.76 1003.74 1004.05 1003.82 1003.24 1002.96 1002.76 1002.55
1018.26 1017.77 1017.35 1016.87 1016.25 1015.79 1015.24 1014.31 1013.36 1013.09 1013.25 1013.53 1013.83 1014.05 1011.22 1008.83 1007.80 1006.71 1006.38 1006.96 1007.28 1007.28 1007.93 1008.23 1008.02 1007.89 1007.90 1008.38 1007.47 1008.49 1008.24 1007.58 1006.87 1006.11 1005.95 1005.96 1005.53 1004.23 1003.53 1003.96 1003.47 1002.90 1002.39 1002.27 1002.03
1018.03 1017.57 1017.07 1016.60 1016.20 1015.78 1015.20 1014.55 1013.87 1013.70 1013.36 1013.21 1012.92 1011.98 1009.70 1007.69 1006.98 1006.05 1006.07 1007.02 1007.12 1006.83 1007.13 1007.36 1007.89 1005.83 1005.06 1006.09 1006.78 1007.14 1007.40 1006.78 1005.96 1006.12 1006.27 1005.70 1005.42 1004.29 1003.35 1003.50 1003.02 1002.37 1002.05 1001.55 1001.34
1017.74 1017.27 1016.82 1016.36 1015.90 1015.50 1015.49 1015.42 1014.59 1014.90 1013.47 1012.13 1011.22 1010.44 1009.29 1008.52 1008.05 1006.38 1005.33 1005.60 1006.14 1005.21 1006.40 1007.19 1004.32 1004.46 1005.27 1005.86 1006.27 1006.58 1006.64 1006.19 1005.64 1005.99 1006.24 1005.53 1005.21 1004.10 1003.27 1002.64 1002.26 1001.83 1001.21 1001.09 1001.37
1017.50 1016.99 1016.53 1016.07 1015.52 1015.60 1015.75 1015.36 1014.87 1014.66 1013.72 1010.93 1008.95 1008.28 1007.70 1007.51 1007.28 1005.24 1005.67 1004.23 1004.29 1005.02 1004.39 1003.84 1001.34 1004.10 1004.40 1004.72 1005.35 1005.47 1005.50 1005.77 1005.58 1006.15 1005.92 1005.76 1005.00 1004.10 1002.36 1001.97 1001.59 1001.07 1000.77 1000.71 1001.30
1017.22 1016.75 1016.30 1015.82 1015.42 1015.75 1015.40 1014.88 1014.83 1014.46 1013.47 1009.57 1007.82 1006.37 1006.23 1006.31 1005.21 1003.95 1003.56 1003.57 1003.52 1003.32 1004.08 1003.61 1003.14 1002.93 1003.29 1003.21 1003.93 1004.19 1004.74 1005.44 1006.00 1006.85 1007.07 1005.96 1005.35 1004.56 1002.92 1001.88 1001.17 1000.16 1000.15 1000.40 1001.23
1016.79 1016.31 1015.97 1015.80 1015.89 1015.52 1015.23 1014.74 1014.45 1014.31 1012.28 1007.46 1006.13 1004.85 1004.86 1005.24 1003.80 1001.96 1002.76 1002.97 1002.38 1002.39 1002.97 1001.28 1001.43 1001.88 1001.73 1001.73 1003.06 1003.05 1004.29 1005.29 1006.35 1007.01 1007.48 1006.82 1006.73 1003.77 1003.31 1002.14 1000.78 1000.21 1000.02 1000.34 1001.34
1016.36 1015.88 1015.58 1015.37 1015.62 1015.18 1015.03 1014.77 1014.46 1014.25 1010.53 1007.10 1006.00 1005.41 1005.18 1004.74 1003.80 1002.25 1002.24 1002.83 1001.92 1002.14 1001.59 1001.29 1000.82 1001.05 1000.56 1001.76 1002.62 1003.62 1004.56 1005.95 1006.76 1007.52 1007.22 1006.80 1006.76 1003.19 1002.84 1001.29 1000.62 1000.04 1000.17 1000.97 1001.86
1016.07 1015.56 1015.44 1015.21 1015.01 1015.02 1015.01 1014.84 1014.52 1012.51 1008.90 1007.93 1007.14 1006.50 1005.48 1005.05 1003.90 1003.24 1002.55 1002.41 1001.59 1001.82 1001.64 1001.47 1000.98 1000.43 1000.30 1001.27 1002.32 1003.53 1004.93 1007.02 1007.75 1007.86 1006.75 1005.85 1005.72 1002.32 1001.00 1000.30 999.91 999.91 1000.41 1001.53 1002.87
1015.80 1015.25 1015.00 1014.84 1014.95 1014.81 1015.18 1015.00 1013.61 1010.96 1009.71 1008.55 1007.92 1006.78 1006.58 1006.25 1005.02 1004.42 1003.40 1003.14 1002.89 1001.95 1001.41 1001.37 1001.02 1000.04 999.32 999.65 1000.80 1002.28 1003.79 1005.02 1006.87 1007.01 1006.15 1004.42 1003.17 1001.12 999.53 998.93 999.12 999.49 1000.20 1001.61 1002.71
1015.53 1015.36 1015.27 1014.77 1014.56 1014.80 1014.90 1014.35 1012.72 1011.42 1010.35 1009.48 1008.28 1007.61 1007.09 1007.08 1007.24 1005.88 1004.86 1003.88 1003.34 1002.76 1002.06 1000.99 1000.13 998.80 998.65 999.03 1000.10 1001.86 1002.79 1003.97 1005.16 1005.64 1005.55 1003.52 1001.60 999.94 998.88 998.71 999.08 999.72 1000.48 1001.77 1002.70
1015.99 1015.59 1015.26 1014.39 1014.37 1014.69 1014.66 1013.87 1012.67 1011.49 1010.85 1010.12 1009.34 1008.52 1008.32 1007.71 1007.46 1007.49 1006.14 1004.98 1004.35 1003.65 1002.67 1000.88 1000.19 998.64 998.58 998.92 999.41 999.72 1001.79 1003.72 1004.51 1005.27 1005.06 1002.98 1001.43 999.46 998.32 998.21 998.69 999.52 1000.51 1001.84 1002.85
1016.18 1015.94 1015.25 1014.48 1014.68 1014.69 1014.57 1013.74 1012.59 1011.44 1010.94 1010.44 1009.87 1009.57 1008.98 1008.38 1007.62 1007.63 1007.43 1006.49 1005.27 1004.19 1002.85 1001.91 1000.78 999.34 998.56 997.71 998.39 999.95 1000.73 1001.83 1003.05 1004.09 1003.95 1003.18 1000.67 998.31 997.63 997.71 998.43 999.25 1000.48 1001.79 1002.50
1016.70 1016.24 1014.71 1014.48 1014.81 1014.87 1014.49 1013.59 1012.56 1011.48 1010.96 1010.59 1010.11 1009.80 1009.17 1008.66 1008.04 1007.56 1007.54 1007.56 1006.74 1005.88 1004.74 1003.73 1002.45 1000.58 998.92 997.98 998.21 998.64 999.25 1000.01 1001.34 1002.35 1002.89 1002.09 1000.10 997.58 997.15 997.33 998.13 998.89 1000.12 1001.55 1002.34
1017.10 1016.47 1014.95 1015.01 1015.32 1015.02 1014.45 1013.62 1012.81 1011.89 1011.19 1010.67 1010.28 1009.66 1009.23 1008.98 1008.77 1007.69 1007.52 1007.60 1007.36 1006.90 1005.93 1004.90 1003.59 1002.21 1000.39 999.28 998.23 997.89 998.35 999.35 1000.34 1001.34 1001.83 1001.53 999.59 997.28 997.22 997.26 998.19 999.22 1000.12 1001.22 1002.14
1017.66 1017.16 1016.21 1015.70 1015.77 1015.45 1014.81 1013.71 1012.84 1011.83 1011.23 1010.80 1010.35 1009.82 1009.61 1009.10 1008.49 1008.05 1007.52 1006.80 1006.75 1007.03 1006.50 1005.81 1004.81 1003.59 1001.44 999.46 998.58 998.56 998.62 999.03 999.76 1000.52 1000.36 999.27 998.75 997.75 997.33 997.73 998.48 999.04 1000.11 1001.08 1001.93
1018.09 1017.82 1017.17 1016.73 1016.02 1015.60 1015.28 1014.33 1013.34 1012.40 1011.67 1010.99 1010.40 1010.05 1010.07 1009.53 1008.61 1007.84 1007.35 1006.84 1006.44 1006.60 1007.11 1006.82 1005.82 1004.37 1002.52 1000.88 999.94 998.70 997.87 997.92 997.97 998.56 998.80 998.24 997.97 997.34 997.09 997.20 997.67 998.35 999.92 1000.95 1001.68
1018.29 1018.10 1017.33 1016.85 1016.35 1015.75 1014.95 1014.20 1013.60 1012.73 1012.20 1011.25 1010.80 1010.37 1010.16 1009.82 1008.93 1008.19 1007.76 1007.16 1006.69 1006.77 1007.19 1007.50 1006.43 1005.04 1003.03 1000.83 1000.14 999.05 997.99 997.31 997.39 997.57 997.82 997.61 997.09 996.45 996.39 997.12 997.67 997.97 999.18 1000.14 1000.87
1017.99 1017.68 1017.44 1016.62 1016.14 1015.99 1015.45 1014.54 1013.92 1013.29 1011.82 1011.27 1010.96 1010.63 1009.82 1009.20 1008.87 1008.23 1007.72 1007.28 1007.01 1007.09 1007.05 1007.40 1007.01 1006.01 1004.23 1002.23 1000.51 998.67 996.50 997.10 997.16 996.65 997.03 997.00 995.87 996.30 996.56 996.76 997.20 997.50 998.05 998.73 999.70
Thickness
5627 5631 5635 5639 5645 5650 5652 5654 5659 5663 5668 5673 5679 5683 5691 5698 5706 5717 5724 5749 5745 5757 5757 5757 5755 5747 5743 5739 5741 5732 5699 5700 5726 5725 5743 5763 5760 5768 5771 5761 5765 5771 5770 5776 5777
5628 5629 5631 5634 5640 5641 5641 5646 5651 5655 5658 5663 5668 5671 5677 5685 5693 5704 5753 5744 5743 5745 5742 5745 5738 5734 5718 5725 5724 5715 5690 5712 5751 5746 5744 5751 5750 5754 5752 5754 5763 5763 5775 5776 5769
5620 5621 5624 5628 5629 5631 5636 5642 5644 5647 5651 5653 5655 5660 5666 5674 5685 5718 5745 5743 5740 5742 5743 5745 5740 5722 5709 5717 5720 5717 5709 5735 5744 5756 5747 5744 5748 5750 5745 5742 5764 5752 5770 5770 5764
5612 5613 5616 5617 5620 5625 5628 5630 5632 5636 5641 5645 5646 5650 5656 5661 5670 5719 5732 5731 5738 5738 5734 5734 5726 5703 5703 5702 5724 5705 5719 5733 5742 5744 5736 5735 5739 5744 5747 5750 5765 5766 5767 5764 5758
5605 5607 5608 5611 5614 5616 5618 5620 5623 5625 5627 5631 5636 5641 5647 5649 5678 5714 5722 5719 5720 5721 5722 5723 5717 5710 5695 5707 5713 5703 5721 5725 5726 5727 5737 5740 5734 5732 5738 5767 5764 5762 5760 5758 5759
5599 5601 5602 5604 5605 5607 5610 5612 5614 5616 5619 5621 5625 5628 5631 5644 5685 5696 5696 5703 5707 5705 5708 5712 5717 5719 5706 5701 5700 5710 5712 5714 5715 5719 5732 5731 5735 5725 5747 5759 5748 5752 5751 5756 5759
5591 5592 5593 5595 5598 5600 5602 5604 5607 5609 5611 5613 5614 5617 5631 5672 5677 5684 5679 5683 5693 5700 5700 5708 5713 5704 5702 5695 5703 5704 5691 5698 5709 5720 5720 5733 5709 5720 5755 5743 5731 5740 5749 5756 5763
5581 5581 5582 5583 5584 5587 5590 5594 5598 5603 5605 5607 5605 5605 5630 5660 5665 5669 5676 5682 5684 5685 5693 5701 5698 5692 5687 5691 5689 5687 5686 5678 5713 5723 5725 5720 5693 5732 5744 5730 5729 5736 5744 5753 5762
5567 5566 5566 5566 5567 5569 5572 5575 5584 5591 5596 5592 5588 5592 5619 5644 5654 5671 5665 5670 5675 5675 5677 5684 5681 5675 5675 5662 5654 5662 5664 5675 5690 5722 5717 5710 5695 5738 5738 5729 5728 5739 5747 5757 5760
5552 5550 5548 5546 5546 5547 5549 5552 5563 5570 5573 5573 5576 5578 5608 5633 5648 5662 5669 5669 5665 5665 5659 5656 5657 5652 5654 5647 5650 5653 5662 5671 5681 5713 5708 5695 5688 5722 5735 5723 5728 5740 5749 5753 5758
5531 5528 5525 5522 5517 5516 5520 5520 5533 5536 5546 5548 5561 5576 5604 5626 5636 5649 5658 5650 5653 5652 5642 5648 5635 5652 5679 5679 5676 5675 5670 5673 5696 5707 5692 5692 5687 5714 5730 5722 5730 5741 5750 5757 5759
5510 5505 5500 5495 5489 5485 5481 5476 5494 5491 5506 5530 5547 5566 5585 5595 5604 5620 5645 5645 5643 5648 5648 5632 5650 5678 5673 5668 5669 5666 5666 5670 5700 5699 5690 5691 5686 5708 5723 5730 5734 5744 5756 5756 5758
5485 5479 5474 5470 5469 5464 5457 5460 5462 5464 5467 5516 5539 5558 5573 5578 5588 5614 5619 5643 5644 5635 5647 5652 5691 5674 5665 5665 5658 5665 5666 5678 5685 5684 5687 5680 5679 5697 5727 5732 5738 5748 5753 5757 5753
5466 5461 5458 5457 5453 5445 5447 5451 5446 5446 5443 5501 5521 5538 5552 5564 5584 5614 5625 5632 5635 5639 5641 5645 5667 5663 5656 5660 5667 5658 5680 5681 5678 5663 5642 5676 5638 5685 5710 5720 5735 5752 5754 5757 5752
5456 5453 5448 5442 5439 5437 5436 5437 5437 5438 5438 5513 5512 5526 5539 5550 5584 5609 5617 5619 5628 5638 5639 5655 5665 5659 5659 5667 5670 5667 5683 5674 5668 5653 5648 5659 5636 5686 5701 5709 5732 5747 5755 5755 5743
5448 5444 5440 5434 5426 5429 5427 5425 5427 5429 5451 5499 5500 5504 5514 5530 5557 5588 5596 5604 5629 5629 5645 5648 5666 5664 5672 5672 5670 5672 5661 5654 5651 5641 5619 5654 5646 5682 5691 5719 5732 5746 5752 5743 5734
5439 5435 5428 5422 5422 5417 5417 5414 5412 5416 5485 5479 5479 5492 5505 5514 5536 5557 5578 5585 5603 5604 5613 5629 5640 5662 5669 5654 5656 5651 5637 5608 5610 5609 5614 5673 5649 5690 5713 5724 5737 5742 5745 5732 5724
5431 5427 5421 5415 5410 5408 5403 5405 5409 5456 5459 5471 5476 5492 5494 5498 5512 5529 5556 5566 5586 5607 5612 5611 5614 5648 5669 5665 5656 5657 5648 5625 5610 5615 5641 5680 5656 5690 5732 5743 5742 5746 5745 5729 5722
5425 5418 5410 5407 5403 5398 5400 5403 5417 5435 5449 5452 5471 5475 5485 5488 5490 5505 5523 5547 5565 5588 5599 5611 5621 5660 5671 5675 5672 5647 5641 5656 5642 5645 5634 5663 5687 5719 5731 5735 5739 5739 5734 5724 5719
5415 5411 5402 5403 5398 5394 5392 5406 5413 5431 5432 5440 5443 5468 5457 5474 5485 5481 5503 5530 5544 5567 5583 5618 5613 5651 5659 5667 5672 5668 5664 5637 5631 5624 5624 5654 5679 5700 5728 5738 5741 5737 5731 5721 5716
5407 5402 5400 5403 5398 5397 5386 5398 5412 5428 5430 5435 5440 5443 5455 5459 5482 5480 5478 5501 5530 5552 5579 5596 5610 5635 5647 5656 5652 5643 5646 5642 5647 5625 5623 5634 5666 5715 5733 5740 5739 5735 5728 5719 5717
5402 5388 5404 5403 5402 5393 5390 5408 5419 5421 5425 5428 5437 5440 5450 5460 5467 5481 5480 5491 5512 5529 5546 5567 5582 5613 5639 5659 5671 5670 5659 5661 5656 5644 5642 5648 5667 5729 5734 5741 5740 5739 5730 5718 5716
5396 5393 5402 5400 5397 5399 5401 5408 5414 5416 5420 5420 5425 5439 5450 5451 5448 5474 5477 5483 5495 5509 5530 5551 5563 5594 5618 5636 5654 5659 5667 5662 5649 5642 5644 5645 5664 5727 5732 5741 5735 5731 5727 5720 5716
5388 5388 5387 5389 5389 5396 5398 5406 5413 5426 5424 5428 5429 5437 5438 5448 5460 5464 5473 5493 5497 5501 5523 5542 5548 5575 5609 5632 5646 5643 5652 5658 5647 5629 5646 5682 5691 5716 5725 5728 5728 5730 5724 5717 5714
5383 5384 5386 5377 5383 5392 5390 5399 5407 5414 5418 5422 5429 5435 5431 5435 5451 5465 5479 5489 5500 5504 5506 5523 5533 5569 5594 5614 5624 5641 5659 5663 5664 5673 5662 5684 5692 5710 5721 5728 5733 5733 5722 5716 5711
5384 5381 5384 5381 5386 5388 5394 5406 5402 5413 5420 5424 5424 5428 5425 5427 5446 5448 5467 5480 5490 5498 5496 5509 5522 5554 5585 5619 5624 5629 5643 5661 5669 5677 5678 5688 5693 5720 5732 5727 5730 5734 5727 5720 5716
5392 5389 5387 5391 5396 5382 5379 5401 5402 5404 5421 5422 5422 5422 5422 5434 5441 5447 5454 5469 5482 5483 5493 5501 5510 5533 5564 5592 5606 5619 5657 5655 5665 5686 5686 5677 5717 5718 5723 5724 5728 5730 5734 5730 5724